Pine Bluff, AR

8:25 PM CST on December 10, 2016 (GMT -0600)
Grider

Weather History for KPBF - February, 2013

Change the Weather History Date:

Tuesday, February 12, 2013

  Actual Average Record
Temperature  
Mean Temperature 45 °F 45 °F  
Max Temperature 49 °F 55 °F 82 °F (1962)
Min Temperature 41 °F 36 °F -5 °F (1899)
Degree Days  
Heating Degree Days 20 20  
Month to date heating degree days 201 248  
Since 1 July heating degree days 1875 2106  
Cooling Degree Days 0 0  
Month to date cooling degree days 0 0  
Year to date cooling degree days 5 1  
Moisture  
Dew Point 41 °F    
Average Humidity 82    
Maximum Humidity 93    
Minimum Humidity 71    
Precipitation  
Precipitation 0.25 in 0.13 in 2.22 in (1948)
Month to date precipitation 1.74 1.59  
Year to date precipitation 8.67 5.35  
Snow  
Snow 0.00 in 0.00 in 2.00 in (1985)
Month to date snowfall 0.0 0.5  
Since 1 July snowfall 2.1 3.0  
Snow Depth 0.00 in    
Sea Level Pressure  
Sea Level Pressure 29.95 in    
Wind  
Wind Speed 7 mph (NNE)    
Max Wind Speed 18 mph    
Max Gust Speed 24 mph    
Visibility 8 miles    
Events Rain    
T = Trace of Precipitation, MM = Missing Value Source: NWS Daily Summary

Daily Weather History Graph

Daily Weather History Graph

Search for Another Location

Airport or City:

Trip Planner

Search our weather history database for the weather conditions in past years. The results will help you decide how hot, cold, wet, or windy it might be!

Date:

Astronomy

Feb. 12, 2013 Rise Set
Actual Time 6:55 AM CST 5:48 PM CST
Civil Twilight 6:29 AM CST 6:14 PM CST
Nautical Twilight 6:00 AM CST 6:44 PM CST
Astronomical Twilight 5:30 AM CST 7:13 PM CST
Moon 8:02 AM CST (2/12) 8:39 PM CST (2/12)
Length of Visible Light 11h 45m
Length of Day
10h 53m
Waxing Crescent, 7% of the Moon is Illuminated
Feb 12
Waxing Crescent
Feb 17
First Quarter
Feb 25
Full
Mar 4
Last Quarter
Mar 11
New

Hourly Weather History & Observations

Time (CST) Temp. Windchill Dew Point Humidity Pressure Visibility Wind Dir Wind Speed Gust Speed Precip Events Conditions
12:53 AM 46.9 °F - 44.1 °F 90% 30.14 in 10.0 mi Calm Calm - N/A   Clear
1:53 AM 46.0 °F - 43.0 °F 89% 30.15 in 10.0 mi Calm Calm - N/A   Clear
2:53 AM 46.0 °F 42.5 °F 42.1 °F 86% 30.11 in 10.0 mi NNE 6.9 mph - N/A   Clear
3:53 AM 43.0 °F 38.8 °F 39.0 °F 86% 30.07 in 10.0 mi NE 6.9 mph - N/A   Clear
4:53 AM 45.0 °F 42.6 °F 37.0 °F 74% 30.05 in 10.0 mi ESE 4.6 mph - N/A   Clear
5:53 AM 41.0 °F - 37.0 °F 86% 30.07 in 10.0 mi Calm Calm - N/A   Clear
6:53 AM 42.1 °F 39.2 °F 37.9 °F 85% 30.07 in 10.0 mi NNW 4.6 mph - N/A   Clear
7:53 AM 45.0 °F 39.7 °F 37.0 °F 74% 30.00 in 10.0 mi ENE 10.4 mph - N/A   Clear
8:53 AM 46.0 °F 42.5 °F 37.9 °F 73% 30.06 in 10.0 mi North 6.9 mph - N/A   Mostly Cloudy
9:53 AM 46.0 °F 44.8 °F 39.9 °F 79% 30.06 in 8.0 mi NNE 3.5 mph - 0.06 in Rain Rain
10:53 AM 45.0 °F 43.5 °F 41.0 °F 86% 30.09 in 10.0 mi North 3.5 mph - 0.09 in Rain Light Rain
11:53 AM 46.0 °F 39.9 °F 42.1 °F 86% 30.01 in 10.0 mi NNE 13.8 mph - 0.03 in Rain Light Rain
12:53 PM 45.0 °F 38.9 °F 41.0 °F 86% 29.97 in 10.0 mi NE 12.7 mph - 0.00 in Rain Light Rain
1:53 PM 45.0 °F 39.3 °F 39.9 °F 82% 29.94 in 10.0 mi NE 11.5 mph - 0.01 in Rain Light Rain
2:53 PM 46.9 °F - 39.0 °F 74% 29.90 in 10.0 mi ENE 11.5 mph - 0.01 in   Overcast
3:53 PM 46.9 °F - 39.0 °F 74% 29.88 in 10.0 mi NE 8.1 mph - 0.01 in Rain Light Rain
4:53 PM 46.9 °F - 43.0 °F 86% 29.88 in 10.0 mi North 5.8 mph - 0.00 in Rain Light Rain
5:53 PM 46.0 °F 41.9 °F 42.1 °F 86% 29.86 in 10.0 mi NE 8.1 mph - N/A   Overcast
6:17 PM 46.4 °F 40.4 °F 39.2 °F 76% 29.85 in 10.0 mi East 13.8 mph - N/A   Overcast
6:53 PM 45.0 °F 39.3 °F 39.0 °F 80% 29.85 in 10.0 mi East 11.5 mph - N/A   Overcast
7:19 PM 46.4 °F 42.4 °F 39.2 °F 76% 29.86 in 10.0 mi East 8.1 mph - N/A   Overcast
7:53 PM 45.0 °F 41.2 °F 41.0 °F 86% 29.87 in 9.0 mi NW 6.9 mph - 0.00 in Rain Light Rain
8:44 PM 44.6 °F 43.1 °F 42.8 °F 93% 29.86 in 5.0 mi NE 3.5 mph - 0.01 in Rain Light Rain
8:53 PM 44.1 °F 41.5 °F 42.1 °F 93% 29.86 in 6.0 mi ENE 4.6 mph - 0.01 in Rain Light Rain
9:09 PM 44.6 °F - 42.8 °F 93% 29.87 in 7.0 mi Calm Calm - 0.00 in   Overcast
9:16 PM 44.6 °F - 42.8 °F 93% 29.87 in 5.0 mi Calm Calm - 0.00 in   Overcast
9:53 PM 44.1 °F 41.5 °F 43.0 °F 96% 29.88 in 5.0 mi NW 4.6 mph - 0.00 in   Overcast
10:05 PM 44.6 °F 43.1 °F 42.8 °F 93% 29.88 in 8.0 mi NNE 3.5 mph - N/A   Overcast
10:33 PM 44.6 °F 43.1 °F 42.8 °F 93% 29.87 in 3.0 mi NNW 3.5 mph - 0.01 in Rain Light Rain
10:53 PM 43.0 °F 40.3 °F 43.0 °F 100% 29.87 in 3.0 mi NW 4.6 mph - 0.01 in Rain Light Rain
11:18 PM 42.8 °F 39.3 °F 42.8 °F 100% 29.87 in 2.5 mi NW 5.8 mph - 0.01 in Rain Light Rain
11:35 PM 42.8 °F 38.6 °F 42.8 °F 100% 29.87 in 3.0 mi NW 6.9 mph - 0.01 in Rain Light Rain
11:53 PM 43.0 °F 38.2 °F 43.0 °F 100% 29.87 in 3.0 mi NW 8.1 mph - 0.02 in Rain Light Rain